Needles, CA

6:19 PM PST on November 21, 2017 (GMT -0800)
Needles

Weather History for KEED - September, 2013

Change the Weather History Date:

Friday, September 20, 2013

  Actual Average Record
Temperature  
Mean Temperature 87 °F 86 °F  
Max Temperature 104 °F 99 °F 108 °F (1934)
Min Temperature 72 °F 73 °F 51 °F (1909)
Degree Days  
Heating Degree Days 0    
Cooling Degree Days 22    
Growing Degree Days 37 (Base 50)    
Moisture  
Dew Point 37 °F    
Average Humidity 19    
Maximum Humidity 37    
Minimum Humidity 8    
Precipitation  
Precipitation 0.00 in 0.01 in 0.22 in (1952)
Month to date precipitation 0.33  
Year to date precipitation 3.35  
Sea Level Pressure  
Sea Level Pressure 29.65 in    
Wind  
Wind Speed 4 mph (SW)    
Max Wind Speed 13 mph    
Max Gust Speed 30 mph    
Visibility 10 miles    
Events      
T = Trace of Precipitation, MM = Missing Value Source: NWS Daily Summary

Daily Weather History Graph

Daily Weather History Graph

Search for Another Location

Airport or City:

Trip Planner

Search our weather history database for the weather conditions in past years. The results will help you decide how hot, cold, wet, or windy it might be!

Date:

Astronomy

Sep. 20, 2013 Rise Set
Actual Time 6:25 AM PDT 6:37 PM PDT
Civil Twilight 6:00 AM PDT 7:02 PM PDT
Nautical Twilight 5:30 AM PDT 7:32 PM PDT
Astronomical Twilight 5:00 AM PDT 8:02 PM PDT
Moon 7:20 PM PDT (9/20) 7:39 AM PDT (9/20)
Length of Visible Light 13h 02m
Length of Day
12h 12m
Full, 98% of the Moon is Illuminated
Sep 20
Full
Sep 26
Last Quarter
Oct 4
New
Oct 11
First Quarter
Oct 18
Full

Hourly Weather History & Observations

Time (PDT) Temp. Dew Point Humidity Pressure Visibility Wind Dir Wind Speed Gust Speed Precip Events Conditions
12:56 AM 78.1 °F 34.0 °F 20% 29.64 in 10.0 mi WNW 3.5 mph - N/A   Clear
1:56 AM 75.9 °F 34.0 °F 22% 29.64 in 10.0 mi Calm Calm - N/A   Clear
2:56 AM 75.0 °F 34.0 °F 22% 29.63 in 10.0 mi SW 4.6 mph - N/A   Clear
3:56 AM 75.0 °F 37.9 °F 26% 29.64 in 10.0 mi Calm Calm - N/A   Clear
4:56 AM 75.0 °F 39.9 °F 28% 29.65 in 10.0 mi Calm Calm - N/A   Clear
5:56 AM 73.9 °F 42.1 °F 32% 29.67 in 10.0 mi Calm Calm - N/A   Clear
6:56 AM 72.0 °F 44.1 °F 37% 29.69 in 10.0 mi Calm Calm - N/A   Clear
7:56 AM 78.1 °F 42.1 °F 28% 29.71 in 10.0 mi East 3.5 mph - N/A   Clear
8:56 AM 81.0 °F 43.0 °F 26% 29.73 in 10.0 mi Calm Calm - N/A   Clear
9:56 AM 88.0 °F 37.9 °F 17% 29.73 in 10.0 mi North 4.6 mph - N/A   Clear
10:56 AM 91.0 °F 39.9 °F 17% 29.72 in 10.0 mi Variable 4.6 mph - N/A   Clear
11:56 AM 93.0 °F 39.9 °F 16% 29.70 in 10.0 mi ESE 4.6 mph - N/A   Clear
12:56 PM 95.0 °F 39.0 °F 14% 29.68 in 10.0 mi West 4.6 mph - N/A   Clear
1:56 PM 99.0 °F 39.0 °F 13% 29.64 in 10.0 mi East 6.9 mph - N/A   Clear
2:56 PM 102.9 °F 34.0 °F 9% 29.62 in 10.0 mi SSE 11.5 mph 29.9 mph N/A   Clear
3:56 PM 102.9 °F 30.9 °F 8% 29.60 in 10.0 mi SW 11.5 mph 19.6 mph N/A   Clear
4:56 PM 102.0 °F 30.9 °F 8% 29.59 in 10.0 mi SSW 12.7 mph - N/A   Clear
5:56 PM 100.0 °F 33.1 °F 10% 29.58 in 10.0 mi SSW 8.1 mph - N/A   Clear
6:56 PM 95.0 °F 30.0 °F 10% 29.58 in 10.0 mi SSW 6.9 mph - N/A   Clear
7:56 PM 91.9 °F 33.1 °F 12% 29.59 in 10.0 mi SSW 8.1 mph - N/A   Clear
8:56 PM 91.0 °F 37.0 °F 15% 29.61 in 10.0 mi SW 8.1 mph - N/A   Clear
9:56 PM 90.0 °F 41.0 °F 18% 29.62 in 10.0 mi SW 8.1 mph - N/A   Clear
10:56 PM 88.0 °F 39.9 °F 18% 29.62 in 10.0 mi WSW 10.4 mph - N/A   Clear
11:56 PM 86.0 °F 39.9 °F 20% 29.62 in 10.0 mi WSW 10.4 mph - N/A   Clear